Retour au catalogue

CENTISPACE-2 S9

ActifNavigationLEO
NORAD 68358·PAYLOAD·🇨🇳 China

Lancé Mar 22, 2026 depuis Yellow Sea Launch Area

Loading…

Prochains Passages (prochaines 24 heures)

TLE

FraisSource: Space-Track

Époque: Sep 13, 2026, 22:12 UTC

1 68358U 26060J   26256.92513709 -.00000134  00000-0  98707-5 0  9996
2 68358  54.9798  51.0985 0007128 261.9976  98.0192 14.25316660 25594

Suivez CENTISPACE-2 S9 en temps réel avec AllMySat

Download on the App Store